Torna al catalogo

AYAME 1 DEB

LostHEO
NORAD 38683·DEBRIS·🇯🇵 Japan

Lanciato Feb 6, 1979 da Tanegashima Space Center

Loading…

Prossimi Passaggi (prossime 24 ore)

TLE

ObsoletoSource: Space-Track

Epoca: Apr 8, 2024, 02:48 UTC

1 38683U 79009F   24099.11734436 -.00000126  00000-0  00000+0 0  9995
2 38683   9.4515 325.5934 3725626  98.3948 304.4232  1.69513566 85493

Traccia AYAME 1 DEB in tempo reale con AllMySat

Download on the App Store